KC5TXI Weather Reports


time (UTC)temp
F
wind
direction
speed
knots
gust
knots
rain 1hr
in
rain 24hr
in
rain mn
in
humidity
%
barometer
mb
20260906233902 97 193 0.9 0.9 0.00 0.00 0.00 43 1012.2
20260906233401 97 202 2.6 2.6 0.00 0.00 0.00 43 1012.3
20260906232855 97 82 1.7 2.6 0.00 0.00 0.00 43 1012.2
20260906232355 97 140 2.6 2.6 0.00 0.00 0.00 43 1012.0
20260906231850 98 181 0.0 0.9 0.00 0.00 0.00 42 1012.3
20260906231345 98 186 1.7 1.7 0.00 0.00 0.00 41 1012.3
20260906230844 98 134 2.6 5.2 0.00 0.00 0.00 40 1012.3
20260906230340 98 148 4.3 6.1 0.00 0.00 0.00 41 1012.2
20260906225838 98 167 0.9 1.7 0.00 0.00 0.00 40 1012.2
20260906225333 98 174 1.7 2.6 0.00 0.00 0.00 41 1012.3
20260906224829 98 153 0.0 0.9 0.00 0.00 0.00 40 1012.3
20260906224326 98 122 0.9 2.6 0.00 0.00 0.00 40 1012.2
20260906223821 98 154 0.9 1.7 0.00 0.00 0.00 40 1012.4
20260906223317 99 96 1.7 1.7 0.00 0.00 0.00 39 1012.5
20260906222815 100 211 2.6 2.6 0.00 0.00 0.00 39 1012.3
20260906222314 99 165 1.7 1.7 0.00 0.00 0.00 40 1012.2
20260906221812 99 166 3.5 4.3 0.00 0.00 0.00 40 1012.4
20260906221307 98 71 3.5 5.2 0.00 0.00 0.00 40 1012.6
20260906220803 100 182 0.9 1.7 0.00 0.00 0.00 39 1012.3
20260906220257 100 208 1.7 1.7 0.00 0.00 0.00 39 1012.5
20260906215757 99 233 1.7 1.7 0.00 0.00 0.00 40 1012.5
20260906215257 99 84 3.5 5.2 0.00 0.00 0.00 41 1012.4
20260906214755 98 132 1.7 2.6 0.00 0.00 0.00 42 1012.3
20260906214250 99 132 4.3 5.2 0.00 0.00 0.00 41 1012.5
20260906213749 100 135 2.6 2.6 0.00 0.00 0.00 40 1012.8
20260906213249 100 60 2.6 4.3 0.00 0.00 0.00 40 1012.6
20260906212746 102 183 1.7 1.7 0.00 0.00 0.00 40 1012.7
20260906212242 102 182 0.9 0.9 0.00 0.00 0.00 39 1013.0
20260906211742 100 196 0.9 1.7 0.00 0.00 0.00 41 1013.0
20260906211237 101 90 3.5 4.3 0.00 0.00 0.00 40 1013.0
20260906210732 101 217 1.7 1.7 0.00 0.00 0.00 40 1013.2
20260906210227 101 193 2.6 4.3 0.00 0.00 0.00 43 1013.1
20260906205721 101 217 0.9 0.9 0.00 0.00 0.00 40 1013.2
20260906205218 99 162 1.7 2.6 0.00 0.00 0.00 41 1013.0
20260906204713 100 95 1.7 2.6 0.00 0.00 0.00 42 1013.1
20260906204212 99 94 1.7 2.6 0.00 0.00 0.00 42 1013.2
20260906203712 98 48 0.9 0.9 0.00 0.00 0.00 43 1013.4
20260906203207 98 175 0.9 0.9 0.00 0.00 0.00 44 1013.5
20260906202704 98 163 1.7 2.6 0.00 0.00 0.00 45 1013.5
20260906202203 99 140 1.7 1.7 0.00 0.00 0.00 43 1013.5
20260906201659 99 193 0.9 0.9 0.00 0.00 0.00 43 1013.6
20260906201157 100 192 2.6 4.3 0.00 0.00 0.00 42 1013.7
20260906200654 99 103 1.7 1.7 0.00 0.00 0.00 44 1013.7
20260906200149 99 111 3.5 4.3 0.00 0.00 0.00 43 1013.8
20260906195644 98 145 2.6 2.6 0.00 0.00 0.00 44 1013.8
20260906195141 100 146 5.2 6.1 0.00 0.00 0.00 43 1013.8
20260906194637 101 215 0.9 0.9 0.00 0.00 0.00 43 1013.8
20260906194132 99 99 0.9 1.7 0.00 0.00 0.00 44 1013.6
20260906193626 99 89 1.7 4.3 0.00 0.00 0.00 44 1014.0
20260906193121 100 184 1.7 1.7 0.00 0.00 0.00 43 1014.0
20260906192617 100 183 2.6 2.6 0.00 0.00 0.00 43 1014.1
20260906192116 100 135 1.7 1.7 0.00 0.00 0.00 43 1014.1
20260906191611 99 191 1.7 2.6 0.00 0.00 0.00 44 1014.2
20260906191110 99 134 2.6 4.3 0.00 0.00 0.00 45 1014.3
20260906190605 100 97 2.6 4.3 0.00 0.00 0.00 44 1014.5
20260906190100 98 95 2.6 4.3 0.00 0.00 0.00 45 1014.4
20260906185559 100 182 1.7 2.6 0.00 0.00 0.00 44 1014.4
20260906185058 100 146 1.7 1.7 0.00 0.00 0.00 44 1014.5
20260906184553 99 124 0.9 1.7 0.00 0.00 0.00 45 1014.4
20260906184048 99 24 0.9 0.9 0.00 0.00 0.00 45 1014.5
20260906183544 99 173 1.7 1.7 0.00 0.00 0.00 45 1014.4
20260906183040 98 169 1.7 1.7 0.00 0.00 0.00 47 1014.5
20260906182535 98 188 1.7 4.3 0.00 0.00 0.00 47 1014.7
20260906182031 98 153 1.7 1.7 0.00 0.00 0.00 47 1014.5
20260906181526 98 194 1.7 1.7 0.00 0.00 0.00 47 1014.9
20260906181022 98 122 1.7 1.7 0.00 0.00 0.00 48 1014.5
20260906180516 97 67 5.2 7.0 0.00 0.00 0.00 47 1015.0
20260906180016 97 120 2.6 2.6 0.00 0.00 0.00 47 1015.0
20260906175514 99 189 1.7 1.7 0.00 0.00 0.00 47 1015.2
20260906175009 98 179 0.0 0.9 0.00 0.00 0.00 48 1015.3
20260906174508 97 151 1.7 2.6 0.00 0.00 0.00 49 1015.2
20260906174003 96 181 1.7 1.7 0.00 0.00 0.00 49 1015.4
20260906173457 94 56 2.6 4.3 0.00 0.00 0.00 52 1015.6
20260906172952 94 166 0.0 0.0 0.00 0.00 0.00 53 1015.7
20260906172447 94 193 0.9 0.9 0.00 0.00 0.00 55 1015.9
20260906171943 95 180 0.9 0.9 0.00 0.00 0.00 54 1015.7
20260906171437 95 165 0.9 0.9 0.00 0.00 0.00 52 1015.8
20260906170933 96 152 2.6 4.3 0.00 0.00 0.00 52 1015.9
20260906170429 97 175 0.9 0.9 0.00 0.00 0.00 51 1016.2
20260906165925 95 189 0.0 0.9 0.00 0.00 0.00 52 1016.3
20260906165425 95 157 1.7 1.7 0.00 0.00 0.00 54 1016.3
20260906164920 95 217 2.6 2.6 0.00 0.00 0.00 53 1016.1
20260906164419 94 170 1.7 2.6 0.00 0.00 0.00 55 1016.2
20260906163916 95 180 0.9 0.9 0.00 0.00 0.00 54 1016.2
20260906163411 93 124 0.0 0.9 0.00 0.00 0.00 56 1016.4
20260906162909 94 32 1.7 1.7 0.00 0.00 0.00 55 1016.4
20260906162407 93 139 1.7 1.7 0.00 0.00 0.00 56 1016.4
20260906161903 93 22 4.3 6.1 0.00 0.00 0.00 57 1015.9
20260906161401 93 105 0.9 0.9 0.00 0.00 0.00 58 1016.2
20260906160900 92 164 1.7 1.7 0.00 0.00 0.00 58 1016.2
20260906160354 92 108 0.9 0.9 0.00 0.00 0.00 60 1016.3
20260906155853 93 54 1.7 1.7 0.00 0.00 0.00 59 1016.2
20260906155347 93 167 0.9 1.7 0.00 0.00 0.00 60 1016.1
20260906154844 91 113 2.6 2.6 0.00 0.00 0.00 61 1016.3
20260906154337 92 198 0.0 0.0 0.00 0.00 0.00 61 1016.4
20260906153830 91 194 0.0 0.9 0.00 0.00 0.00 62 1016.2
20260906153324 92 128 1.7 1.7 0.00 0.00 0.00 61 1016.1
20260906152820 91 186 1.7 1.7 0.00 0.00 0.00 63 1016.2
20260906152315 91 190 0.9 0.9 0.00 0.00 0.00 64 1016.2
20260906151814 91 146 0.0 0.9 0.00 0.00 0.00 63 1016.3
20260906151310 90 186 0.0 0.0 0.00 0.00 0.00 66 1016.1
20260906150805 89 185 0.9 0.9 0.00 0.00 0.00 66 1016.1
20260906150301 89 195 0.9 0.9 0.00 0.00 0.00 66 1015.9
20260906145800 90 83 0.9 0.9 0.00 0.00 0.00 66 1015.9
20260906145258 89 201 1.7 1.7 0.00 0.00 0.00 66 1015.8
20260906144754 89 199 0.9 1.7 0.00 0.00 0.00 67 1015.8
20260906144248 89 178 0.0 0.0 0.00 0.00 0.00 67 1015.8
20260906143748 88 187 0.0 0.9 0.00 0.00 0.00 68 1015.6
20260906143245 87 152 0.0 0.9 0.00 0.00 0.00 70 1015.9
20260906142744 87 171 0.9 0.9 0.00 0.00 0.00 71 1015.8
20260906142240 87 114 0.0 0.9 0.00 0.00 0.00 71 1015.9
20260906141738 87 209 0.9 0.9 0.00 0.00 0.00 71 1015.8
20260906141234 87 147 0.9 0.9 0.00 0.00 0.00 71 1015.8
20260906140733 86 116 0.9 0.9 0.00 0.00 0.00 73 1015.7
20260906140228 86 192 0.9 0.9 0.00 0.00 0.00 73 1015.7
20260906135724 85 136 0.9 0.9 0.00 0.00 0.00 73 1015.6
20260906135221 85 173 0.9 0.9 0.00 0.00 0.00 74 1015.5
20260906134716 85 134 0.0 0.9 0.00 0.00 0.00 74 1015.6
20260906134211 85 166 1.7 1.7 0.00 0.00 0.00 74 1015.6
20260906133707 84 177 0.0 0.0 0.00 0.00 0.00 76 1015.7
20260906133202 84 180 0.9 0.9 0.00 0.00 0.00 76 1015.6
20260906132657 83 185 0.0 0.0 0.00 0.00 0.00 78 1015.8
20260906132153 82 124 0.0 0.0 0.00 0.00 0.00 80 1015.5
20260906131648 81 161 0.0 0.0 0.00 0.00 0.00 82 1015.6
20260906131143 81 111 0.9 0.9 0.00 0.00 0.00 82 1015.5
20260906130638 82 184 0.0 0.0 0.00 0.00 0.00 82 1015.7
20260906130133 81 180 0.0 0.0 0.00 0.00 0.00 84 1015.7
20260906125630 79 177 0.0 0.0 0.00 0.00 0.00 87 1015.5
20260906125124 79 172 0.0 0.0 0.00 0.00 0.00 87 1015.4
20260906124620 78 192 0.0 0.0 0.00 0.00 0.00 87 1015.3
20260906124115 78 193 0.0 0.0 0.00 0.00 0.00 87 1015.5
20260906123614 78 190 0.0 0.0 0.00 0.00 0.00 87 1015.3
20260906123109 78 163 0.0 0.9 0.00 0.00 0.00 87 1015.3
20260906122609 78 138 1.7 1.7 0.00 0.00 0.00 87 1015.4
20260906122105 78 151 0.0 0.0 0.00 0.00 0.00 87 1015.1
20260906121600 78 177 0.0 0.0 0.00 0.00 0.00 88 1015.1
20260906121057 78 181 0.0 0.0 0.00 0.00 0.00 88 1015.1
20260906120552 78 189 0.0 0.0 0.00 0.00 0.00 88 1015.2
20260906120049 77 191 0.0 0.0 0.00 0.00 0.00 88 1015.0
20260906115548 77 189 0.0 0.0 0.00 0.00 0.00 88 1015.1
20260906115044 77 192 0.0 0.0 0.00 0.00 0.00 88 1015.0
20260906114538 77 191 0.0 0.0 0.00 0.00 0.00 88 1014.9
20260906114034 77 179 0.0 0.0 0.00 0.00 0.00 88 1014.9
20260906113533 77 176 0.0 0.0 0.00 0.00 0.00 88 1015.0
20260906113028 77 188 0.0 0.0 0.00 0.00 0.00 88 1014.8
20260906112523 77 171 0.0 0.0 0.00 0.00 0.00 88 1014.8
20260906112020 77 186 0.0 0.0 0.00 0.00 0.00 88 1014.9
20260906111519 77 185 0.0 0.0 0.00 0.00 0.00 88 1014.7
20260906111014 77 186 0.0 0.0 0.00 0.00 0.00 88 1014.6
20260906110509 77 177 0.0 0.0 0.00 0.00 0.00 87 1014.5
20260906110007 77 176 0.0 0.0 0.00 0.00 0.00 87 1014.7
20260906105503 77 177 0.0 0.0 0.00 0.00 0.00 87 1014.4
20260906104959 77 177 0.0 0.0 0.00 0.00 0.00 87 1014.7
20260906104457 78 177 0.0 0.0 0.00 0.00 0.00 86 1014.7
20260906103956 78 176 0.0 0.0 0.00 0.00 0.00 87 1014.7
20260906103455 77 180 0.0 0.0 0.00 0.00 0.00 87 1014.8
20260906102950 77 180 0.0 0.0 0.00 0.00 0.00 87 1014.5
20260906102450 77 179 0.0 0.0 0.00 0.00 0.00 87 1014.6
20260906101944 77 186 0.0 0.0 0.00 0.00 0.00 86 1014.4
20260906101440 78 186 0.0 0.0 0.00 0.00 0.00 86 1014.3
20260906100935 78 186 0.0 0.0 0.00 0.00 0.00 86 1014.3
20260906100430 78 186 0.0 0.0 0.00 0.00 0.00 86 1014.3
20260906095930 78 186 0.0 0.0 0.00 0.00 0.00 86 1014.1
20260906095426 78 186 0.0 0.0 0.00 0.00 0.00 86 1014.2
20260906094926 78 187 0.0 0.0 0.00 0.00 0.00 86 1014.0
20260906094414 78 187 0.0 0.0 0.00 0.00 0.00 86 1013.9
20260906093905 78 187 0.0 0.0 0.00 0.00 0.00 85 1013.9
20260906093402 78 187 0.0 0.0 0.00 0.00 0.00 84 1013.9
20260906092900 79 187 0.0 0.0 0.00 0.00 0.00 84 1014.1
20260906092355 79 187 0.0 0.0 0.00 0.00 0.00 84 1013.9
20260906091850 79 188 0.0 0.0 0.00 0.00 0.00 83 1014.0
20260906091347 79 184 0.0 0.0 0.00 0.00 0.00 82 1014.0
20260906090843 80 184 0.0 0.0 0.00 0.00 0.00 82 1014.0
20260906090342 80 182 0.0 0.0 0.00 0.00 0.00 81 1013.9
20260906085836 80 172 0.0 0.0 0.00 0.00 0.00 81 1014.0
20260906085335 80 181 0.0 0.0 0.00 0.00 0.00 81 1013.9
20260906084831 80 192 0.0 0.0 0.00 0.00 0.00 80 1013.8
20260906084330 81 189 0.0 0.0 0.00 0.00 0.00 80 1013.8
20260906083825 81 199 0.0 0.0 0.00 0.00 0.00 79 1013.8
20260906083320 81 186 0.0 0.0 0.00 0.00 0.00 79 1013.7
20260906082815 81 192 0.0 0.0 0.00 0.00 0.00 78 1013.9
20260906082310 82 192 0.0 0.0 0.00 0.00 0.00 78 1013.9
20260906081806 82 194 0.0 0.0 0.00 0.00 0.00 78 1013.8
20260906081302 82 202 0.9 0.9 0.00 0.00 0.00 78 1013.6
20260906080758 82 125 0.0 0.9 0.00 0.00 0.00 77 1013.8
20260906080254 82 188 0.0 0.9 0.00 0.00 0.00 77 1014.0
20260906075747 82 188 0.0 0.0 0.00 0.00 0.00 77 1014.1
20260906075242 82 168 0.0 0.9 0.00 0.00 0.00 77 1013.8
20260906074737 82 189 0.9 0.9 0.00 0.00 0.00 77 1013.9
20260906074236 82 226 0.9 1.7 0.00 0.00 0.00 77 1014.1
20260906073736 82 195 0.9 0.9 0.00 0.00 0.00 76 1014.0
20260906073231 83 239 0.0 0.0 0.00 0.00 0.00 76 1014.0
20260906072727 83 204 0.9 1.7 0.00 0.00 0.00 76 1014.0
20260906072223 83 208 0.9 0.9 0.00 0.00 0.00 75 1013.9
20260906071719 83 187 0.0 0.0 0.00 0.00 0.00 75 1014.1
20260906071218 83 212 2.6 6.1 0.00 0.00 0.00 75 1014.0
20260906070715 84 208 0.0 0.9 0.00 0.00 0.00 75 1014.3
20260906070210 84 203 0.0 0.9 0.00 0.00 0.00 75 1014.2
20260906065710 84 201 2.6 2.6 0.00 0.00 0.00 74 1014.3
20260906065205 84 185 0.9 0.9 0.00 0.00 0.00 74 1014.3
20260906064701 84 185 0.9 2.6 0.00 0.00 0.00 74 1014.3
20260906064156 84 195 0.0 0.0 0.00 0.00 0.00 74 1014.3
20260906063651 84 246 1.7 2.6 0.00 0.00 0.00 74 1014.3
20260906063147 84 187 1.7 1.7 0.00 0.00 0.00 74 1014.4
20260906062642 84 198 0.0 0.9 0.00 0.00 0.00 74 1014.5
20260906062140 84 195 0.0 0.0 0.00 0.00 0.00 73 1014.3
20260906061637 84 193 0.9 1.7 0.00 0.00 0.00 74 1014.5
20260906061137 84 196 0.0 0.0 0.00 0.00 0.00 74 1014.5
20260906060634 84 193 0.0 0.0 0.00 0.00 0.00 74 1014.5
20260906060131 84 194 0.0 0.9 0.00 0.00 0.00 74 1014.6
20260906055626 84 182 0.0 0.9 0.00 0.00 0.00 73 1014.4
20260906055121 85 199 0.0 0.0 0.00 0.00 0.00 73 1014.4
20260906054616 85 184 0.0 0.0 0.00 0.00 0.00 73 1014.4
20260906054111 85 216 1.7 2.6 0.00 0.00 0.00 73 1014.5
20260906053608 85 200 0.0 0.9 0.00 0.00 0.00 73 1014.4
20260906053057 85 192 0.0 0.9 0.00 0.00 0.00 73 1014.4
20260906052552 85 187 0.0 0.0 0.00 0.00 0.00 73 1014.3
20260906052050 85 211 0.0 0.0 0.00 0.00 0.00 72 1014.3
20260906051545 85 186 0.0 0.9 0.00 0.00 0.00 72 1014.4
20260906051040 85 183 0.9 0.9 0.00 0.00 0.00 72 1014.3
20260906050535 86 194 0.0 0.0 0.00 0.00 0.00 71 1014.2
20260906050031 86 164 0.0 0.9 0.00 0.00 0.00 71 1014.3
20260906045529 86 195 1.7 1.7 0.00 0.00 0.00 70 1014.2
20260906045025 86 187 0.9 0.9 0.00 0.00 0.00 70 1014.4
20260906044520 86 164 0.0 0.9 0.00 0.00 0.00 69 1014.5
20260906044016 86 170 0.9 0.9 0.00 0.00 0.00 69 1014.4
20260906043510 86 182 0.9 0.9 0.00 0.00 0.00 69 1014.2
20260906043001 86 177 1.7 1.7 0.00 0.00 0.00 69 1014.2
20260906042500 86 167 2.6 2.6 0.00 0.00 0.00 69 1014.3
20260906041959 86 152 0.9 1.7 0.00 0.00 0.00 69 1014.3
20260906041456 87 180 0.0 0.0 0.00 0.00 0.00 68 1014.0
20260906040955 87 167 2.6 2.6 0.00 0.00 0.00 68 1014.2
20260906040450 87 193 0.0 0.0 0.00 0.00 0.00 67 1014.0
20260906035946 87 198 0.9 1.7 0.00 0.00 0.00 67 1014.2
20260906035441 87 157 0.9 1.7 0.00 0.00 0.00 67 1014.2
20260906034936 87 163 0.0 0.9 0.00 0.00 0.00 67 1014.1
20260906034431 87 175 1.7 1.7 0.00 0.00 0.00 67 1014.3
20260906033926 87 185 1.7 1.7 0.00 0.00 0.00 67 1014.1
20260906033421 87 200 0.9 0.9 0.00 0.00 0.00 66 1014.4
20260906032917 87 210 0.9 1.7 0.00 0.00 0.00 66 1014.4
20260906032413 87 183 0.0 0.0 0.00 0.00 0.00 66 1014.2
20260906031907 87 210 0.9 1.7 0.00 0.00 0.00 65 1014.2
20260906031402 88 155 1.7 2.6 0.00 0.00 0.00 65 1014.0
20260906030852 88 194 1.7 1.7 0.00 0.00 0.00 64 1014.3
20260906030346 88 114 0.9 1.7 0.00 0.00 0.00 64 1014.3
20260906025840 88 184 0.9 0.9 0.00 0.00 0.00 64 1014.1
20260906025335 88 162 0.9 1.7 0.00 0.00 0.00 64 1014.2
20260906024833 88 199 0.9 0.9 0.00 0.00 0.00 64 1014.2
20260906024333 88 191 1.7 1.7 0.00 0.00 0.00 64 1014.2
20260906023829 88 177 1.7 1.7 0.00 0.00 0.00 63 1014.1
20260906023324 88 182 0.9 0.9 0.00 0.00 0.00 63 1013.8
20260906022820 88 186 1.7 2.6 0.00 0.00 0.00 63 1014.0
20260906022315 88 185 1.7 2.6 0.00 0.00 0.00 63 1013.9
20260906021810 89 78 1.7 2.6 0.00 0.00 0.00 63 1013.7
20260906021309 89 230 1.7 1.7 0.00 0.00 0.00 63 1013.6
20260906020804 89 88 0.9 1.7 0.00 0.00 0.00 63 1013.5
20260906020258 89 238 0.9 1.7 0.00 0.00 0.00 62 1013.4
20260906015753 89 150 0.0 0.9 0.00 0.00 0.00 62 1013.5
20260906015251 89 171 0.9 0.9 0.00 0.00 0.00 62 1013.4
20260906014746 89 207 4.3 6.1 0.00 0.00 0.00 61 1013.4
20260906014242 89 177 1.7 2.6 0.00 0.00 0.00 61 1013.1
20260906013738 90 321 1.7 1.7 0.00 0.00 0.00 60 1013.1
20260906013238 90 204 2.6 2.6 0.00 0.00 0.00 60 1012.9
20260906012733 90 196 1.7 1.7 0.00 0.00 0.00 59 1012.9
20260906012227 90 161 1.7 1.7 0.00 0.00 0.00 59 1013.0
20260906011723 91 187 2.6 2.6 0.00 0.00 0.00 58 1012.8
20260906011217 91 147 0.9 1.7 0.00 0.00 0.00 58 1012.9
20260906010713 91 155 1.7 1.7 0.00 0.00 0.00 57 1012.6
20260906010209 91 204 2.6 2.6 0.00 0.00 0.00 57 1012.8
20260906005708 92 45 1.7 1.7 0.00 0.00 0.00 55 1012.7
20260906005203 93 119 3.5 5.2 0.00 0.00 0.00 55 1012.6
20260906004702 95 143 5.2 6.1 0.00 0.00 0.00 51 1012.6
20260906004156 96 150 2.6 2.6 0.00 0.00 0.00 45 1012.3
20260906003646 96 224 0.9 1.7 0.00 0.00 0.00 44 1012.4
20260906003142 96 145 0.0 0.9 0.00 0.00 0.00 45 1012.4
20260906002642 96 172 0.0 0.0 0.00 0.00 0.00 44 1012.4
20260906002137 96 130 0.9 0.9 0.00 0.00 0.00 44 1012.1
20260906001632 96 133 0.9 1.7 0.00 0.00 0.00 43 1012.3
20260906001131 97 181 0.0 0.0 0.00 0.00 0.00 43 1012.3
20260906000627 97 182 0.9 0.9 0.00 0.00 0.00 43 1012.2
20260906000123 97 97 0.0 0.9 0.00 0.00 0.00 42 1012.2
20260905235621 97 112 1.7 1.7 0.00 0.00 0.00 42 1012.0
20260905235117 97 119 1.7 1.7 0.00 0.00 0.00 41 1011.9
20260905234612 97 120 0.0 0.0 0.00 0.00 0.00 42 1012.0
20260905234108 97 202 0.0 0.0 0.00 0.00 0.00 41 1012.0